This is the latest recevied weather packets stored in our database for station/object KC7UNY-13. If no packets are shown the sender has not sent any weather packets the latest 10 day(s).
| Time | Temp. | Humidity | Pressure | Rain* | Wind** | Luminosity | Snow |
|---|---|---|---|---|---|---|---|
| 1776939245 | 16.11° C | 34% | 1011.9 hPa | 0 mm | - | 0 W/m² | - |
| 1776938942 | 16.67° C | 35% | 1012 hPa | 0 mm | - | 0 W/m² | - |
| 1776938639 | 17.22° C | 33% | 1012 hPa | 0 mm | - | 0 W/m² | - |
| 1776938337 | 17.78° C | 31% | 1011.9 hPa | 0 mm | - | 0 W/m² | - |
| 1776938034 | 17.22° C | 31% | 1011.9 hPa | 0 mm | - | 0 W/m² | - |
| 1776937730 | 17.22° C | 34% | 1011.7 hPa | 0 mm | - | 0 W/m² | - |
| 1776937427 | 17.22° C | 32% | 1011.9 hPa | 0 mm | - | 0 W/m² | - |
| 1776937124 | 17.22° C | 33% | 1011.9 hPa | 0 mm | - | 0 W/m² | - |
| 1776936821 | 17.22° C | 33% | 1011.8 hPa | 0 mm | - | 0 W/m² | - |
| 1776936519 | 17.78° C | 32% | 1011.8 hPa | 0 mm | - | 0 W/m² | - |
| 1776936216 | 17.78° C | 32% | 1011.7 hPa | 0 mm | - | 0 W/m² | - |
| 1776935913 | 17.78° C | 33% | 1011.8 hPa | 0 mm | - | 0 W/m² | - |
| 1776935610 | 17.78° C | 32% | 1011.9 hPa | 0 mm | - | 0 W/m² | - |
| 1776935306 | 17.78° C | 32% | 1011.8 hPa | 0 mm | - | 0 W/m² | - |
| 1776935003 | 18.33° C | 30% | 1011.8 hPa | 0 mm | - | 0 W/m² | - |
| 1776934699 | 18.89° C | 30% | 1012 hPa | 0 mm | - | 0 W/m² | - |
| 1776934397 | 18.89° C | 30% | 1012 hPa | 0 mm | - | 0 W/m² | - |
| 1776934093 | 19.44° C | 29% | 1011.9 hPa | 0 mm | - | 0 W/m² | - |
| 1776933791 | 19.44° C | 29% | 1011.9 hPa | 0 mm | - | 0 W/m² | - |
| 1776933487 | 19.44° C | 29% | 1012.1 hPa | 0 mm | - | 0 W/m² | - |
| 1776933184 | 19.44° C | 29% | 1012.1 hPa | 0 mm | - | 0 W/m² | - |
| 1776932880 | 19.44° C | 29% | 1012.1 hPa | 0 mm | - | 0 W/m² | - |
| 1776932575 | 19.44° C | 29% | 1012.1 hPa | 0 mm | - | 0 W/m² | - |
| 1776932273 | 18.89° C | 30% | 1012.1 hPa | 0 mm | - | 0 W/m² | - |
| 1776931971 | 18.89° C | 31% | 1012.1 hPa | 0 mm | - | 0 W/m² | - |
* Rain latest hour (hover to see other rain measurements)
** Current wind speed in m/s (hover to see current wind gust speed)